GW4407 Weather Reports


time (UTC)temp
C
wind
direction
speed
KPH
gust
KPH
rain 1hr
cm
rain 24hr
cm
rain mn
cm
humidity
%
barometer
mb
20260502200005 15 150 6.4 11.3 0.74 0.74 0.74 87 1024.2
20260502195617 15 151 6.4 20.9 0.74 0.74 0.74 87 1024.6
20260502194505 19 174 12.9 20.9 0.15 0.15 0.15 75 1024.9
20260502193603 20 162 6.4 17.7 0.00 0.00 0.00 61 1024.4
20260502192703 20 167 4.8 11.3 0.00 0.00 0.00 64 1024.4
20260502191805 20 105 0.0 1.6 0.00 0.00 0.00 67 1024.2
20260502190905 20 57 0.0 3.2 0.00 0.00 0.00 65 1023.9
20260502190005 21 44 1.6 3.2 0.00 0.00 0.00 63 1023.7
20260502185405 21 43 0.0 3.2 0.00 0.00 0.00 62 1023.8
20260502184721 21 6 1.6 3.2 0.00 0.00 0.00 61 1023.8
20260502183603 21 28 1.6 3.2 0.00 0.00 0.00 60 1023.7
20260502182919 21 24 1.6 3.2 0.00 0.00 0.00 60 1023.5
20260502181805 22 29 1.6 4.8 0.00 0.00 0.00 60 1023.7
20260502181118 22 25 1.6 4.8 0.00 0.00 0.00 59 1023.7
20260502170217 24 215 3.2 4.8 0.00 0.00 0.00 52 1023.8
20260502163819 23 243 3.2 9.7 0.00 0.00 0.00 51 1024.4
20260502162703 23 38 1.6 3.2 0.00 0.00 0.00 53 1024.4
20260502161803 23 337 3.2 4.8 0.00 0.00 0.00 54 1024.5
20260502160903 25 260 1.6 4.8 0.00 0.00 0.00 51 1024.8
20260502160221 23 231 3.2 9.7 0.00 0.00 0.00 52 1024.8
20260502151805 23 235 1.6 9.7 0.00 0.00 0.00 54 1025.4
20260502150903 23 224 3.2 6.4 0.00 0.00 0.00 54 1025.5
20260502123603 22 285 6.4 12.9 0.00 0.00 0.00 57 1027.0
20260502122917 22 250 6.4 11.3 0.00 0.00 0.00 56 1027.1
20260502121805 22 249 6.4 12.9 0.00 0.00 0.00 55 1027.1
20260502120903 22 226 6.4 14.5 0.00 0.00 0.00 54 1027.1
20260502120219 23 237 4.8 14.5 0.00 0.00 0.00 54 1027.0
20260502115619 22 275 4.8 11.3 0.00 0.00 0.00 54 1027.1
20260502113603 22 201 8.0 16.1 0.00 0.00 0.00 55 1027.6
20260502112705 22 222 6.4 16.1 0.00 0.00 0.00 53 1027.5
20260502111803 22 211 6.4 16.1 0.00 0.00 0.00 53 1027.6
20260502110905 22 215 8.0 16.1 0.00 0.00 0.00 54 1027.7
20260502110005 22 222 9.7 17.7 0.00 0.00 0.00 55 1027.8
20260502105403 22 243 6.4 12.9 0.00 0.00 0.00 54 1027.9
20260502104503 22 240 8.0 14.5 0.00 0.00 0.00 54 1027.9
20260502103605 21 196 9.7 22.5 0.00 0.00 0.00 55 1028.1
20260502102705 22 199 4.8 14.5 0.00 0.00 0.00 52 1028.0
20260502102019 21 197 6.4 14.5 0.00 0.00 0.00 54 1028.0
20260502101119 21 197 8.0 17.7 0.00 0.00 0.00 53 1028.1
20260502090903 18 196 8.0 12.9 0.00 0.00 0.00 50 1028.6
20260502090218 18 193 8.0 12.9 0.00 0.00 0.00 50 1028.5
20260502070903 15 208 6.4 12.9 0.00 0.00 0.00 55 1028.8
20260502070004 15 207 6.4 12.9 0.00 0.00 0.00 54 1028.7
20260502065403 15 189 8.0 14.5 0.00 0.00 0.00 54 1028.7
20260502064505 15 200 9.7 16.1 0.00 0.00 0.00 53 1028.7
20260502063605 15 195 9.7 17.7 0.00 0.00 0.00 52 1028.4
20260502062703 15 200 8.0 16.1 0.00 0.00 0.00 50 1028.4
20260502062018 15 198 9.7 20.9 0.00 0.00 0.00 48 1028.4
20260502060905 15 197 12.9 24.1 0.00 0.00 0.00 48 1028.8
20260502060003 15 196 8.0 16.1 0.00 0.00 0.00 48 1028.7
20260502055616 15 186 9.7 20.9 0.00 0.00 0.00 48 1028.6
20260502054503 15 184 8.0 14.5 0.00 0.00 0.00 48 1028.4
20260502053605 15 200 8.0 14.5 0.00 0.00 0.00 48 1028.4
20260502052703 15 166 8.0 12.9 0.00 0.00 0.00 47 1028.2
20260502051805 15 177 6.4 11.3 0.00 0.00 0.00 48 1028.2
20260502051121 15 186 6.4 14.5 0.00 0.00 0.00 48 1028.2
20260502050005 14 179 4.8 9.7 0.00 0.00 0.00 49 1028.4
20260502045620 13 189 4.8 6.4 0.00 0.00 0.00 50 1028.5
20260502044719 13 195 3.2 6.4 0.00 0.00 0.00 51 1028.3
20260502043605 13 175 3.2 6.4 0.00 0.00 0.00 52 1028.6
20260502042705 13 178 4.8 6.4 0.00 0.00 0.00 52 1028.4
20260502041805 12 179 3.2 4.8 0.00 0.00 0.00 53 1028.6
20260502040903 12 187 4.8 6.4 0.00 0.00 0.00 53 1028.7
20260502040005 12 207 4.8 9.7 0.00 0.00 0.00 53 1028.8
20260502035620 12 193 4.8 9.7 0.00 0.00 0.00 53 1028.8
20260502034503 13 187 3.2 4.8 0.00 0.00 0.00 52 1028.8
20260502033603 13 196 3.2 4.8 0.00 0.00 0.00 51 1028.8
20260502032703 13 203 3.2 4.8 0.00 0.00 0.00 51 1028.8
20260502031803 13 195 3.2 4.8 0.00 0.00 0.00 50 1028.9
20260502030905 13 180 3.2 4.8 0.00 0.00 0.00 50 1029.0
20260502030003 13 177 4.8 6.4 0.00 0.00 0.00 50 1029.2
20260502025619 13 179 4.8 6.4 0.00 0.00 0.00 50 1029.0
20260502024718 14 184 4.8 6.4 0.00 0.00 0.00 49 1029.2
20260502023605 14 190 4.8 6.4 0.00 0.00 0.00 49 1029.4
20260502022917 14 180 4.8 9.7 0.00 0.00 0.00 48 1029.4
20260502021803 15 174 4.8 6.4 0.00 0.00 0.00 47 1029.3
20260502020905 15 181 3.2 4.8 0.00 0.00 0.00 46 1029.2
20260502020006 15 192 3.2 4.8 0.00 0.00 0.00 46 1029.3
20260502015403 15 190 4.8 9.7 0.00 0.00 0.00 46 1029.5
20260502014503 15 181 4.8 9.7 0.00 0.00 0.00 45 1029.5
20260502013603 15 184 4.8 9.7 0.00 0.00 0.00 45 1029.4
20260502012703 15 188 6.4 9.7 0.00 0.00 0.00 45 1029.4
20260502011805 16 182 6.4 12.9 0.00 0.00 0.00 45 1029.7
20260502011119 16 179 6.4 11.3 0.00 0.00 0.00 44 1029.5
20260502010005 16 189 4.8 9.7 0.00 0.00 0.00 45 1029.8
20260502005405 16 181 4.8 12.9 0.00 0.00 0.00 44 1029.9
20260502004505 16 189 6.4 11.3 0.00 0.00 0.00 44 1029.9
20260502003821 16 200 6.4 12.9 0.00 0.00 0.00 43 1030.2
20260502002916 16 202 8.0 12.9 0.00 0.00 0.00 43 1030.2
20260502001805 16 186 8.0 12.9 0.00 0.00 0.00 43 1030.3
20260502000903 16 193 6.4 14.5 0.00 0.00 0.00 43 1030.4
20260502000005 16 195 8.0 12.9 0.00 0.00 0.00 43 1030.4
20260501235403 16 183 8.0 12.9 0.00 0.00 0.00 43 1030.4
20260501234717 17 189 8.0 12.9 0.00 0.00 0.00 43 1030.5
20260501233603 17 199 9.7 16.1 0.00 0.00 0.00 42 1030.6
20260501232703 17 184 9.7 14.5 0.00 0.00 0.00 42 1030.5
20260501231803 17 173 9.7 20.9 0.00 0.00 0.00 41 1030.6
20260501231119 17 189 9.7 14.5 0.00 0.00 0.00 41 1030.7
20260501230218 17 181 9.7 14.5 0.00 0.00 0.00 40 1030.6
20260501225618 18 203 9.7 14.5 0.00 0.00 0.00 40 1030.7
20260501224503 17 182 6.4 12.9 0.00 0.00 0.00 40 1030.7
20260501223816 17 165 8.0 14.5 0.00 0.00 0.00 41 1030.7
20260501222703 17 176 6.4 9.7 0.00 0.00 0.00 41 1030.7
20260501221803 17 166 6.4 12.9 0.00 0.00 0.00 42 1030.7
20260501220903 17 167 6.4 12.9 0.00 0.00 0.00 41 1030.7
20260501220004 18 166 8.0 12.9 0.00 0.00 0.00 41 1030.8
20260501215403 18 169 6.4 12.9 0.00 0.00 0.00 40 1030.8
20260501214503 18 164 6.4 16.1 0.00 0.00 0.00 40 1030.7
20260501213603 18 175 6.4 12.9 0.00 0.00 0.00 39 1030.7
20260501212703 18 157 6.4 11.3 0.00 0.00 0.00 39 1030.8
20260501211803 18 166 6.4 16.1 0.00 0.00 0.00 39 1030.8
20260501210903 18 145 4.8 12.9 0.00 0.00 0.00 39 1030.8
20260501210003 18 159 6.4 11.3 0.00 0.00 0.00 39 1030.8
20260501205403 18 169 4.8 11.3 0.00 0.00 0.00 38 1031.0
20260501204716 18 159 4.8 11.3 0.00 0.00 0.00 38 1031.2
20260501203816 18 137 4.8 11.3 0.00 0.00 0.00 38 1031.1
20260501202703 19 147 3.2 11.3 0.00 0.00 0.00 38 1031.0
20260501202018 19 160 3.2 6.4 0.00 0.00 0.00 38 1031.2
20260501200903 19 121 4.8 11.3 0.00 0.00 0.00 39 1031.2